KJSV

Details ICAO KJSV
Name SALLISAW MUNI
Region United States
Timezone America/Chicago (UTC-5.0)
Plans Departing 1
Arriving 1
Stats Elevation 528 ft / 161 m (AMSL)
Location 35.438206° -94.802817°
Runways 1
Magnetic Variation 1.917° E
Sunrise 2018-05-25 11:09:41 UTC / 2018-05-25 06:09:41 Local
Sunset 2018-05-26 01:25:32 UTC / 2018-05-25 20:25:32 Local
Advertisement - Login to hide

Runways

ID Width Length Bearing (true) Bearing (mag) Surface Threshold Offset Overrun Length
17 75 ft / 23 m 4,010 ft / 1,222 m 180.31° 178.39° Asphalt 0 ft / 0 m 0 ft / 0 m
35 75 ft / 23 m 4,010 ft / 1,222 m 0.31° 358.39° Asphalt 0 ft / 0 m 0 ft / 0 m

Map

Weather


0- 5 10 15 20 25 30 35+ Temperature / ° C

Clouds and Precipitation
Forecast for 2018-05-25 12:00 UTC. Updated 4 hours ago

Ground ~20,000 ft ~40,000 ft Winds

METAR

KJSV 251535Z AUTO 28006KT 10SM CLR 27/21 A3001 RMK AO2

TAF

Not found

Frequencies

Recorded 118.47 MHz AWOS 3
Approach 120.90 MHz RAZORBACK APP/DEP
Unicom 122.70 MHz CTAF/UNICOM
Approach 134.52 MHz RAZORBACK APP/DEP
Warning: Do not use this data for real-world aviation or navigation. No guarantee of current accuracy is given.